Wind_Speed
24 22 20 19 18 18 20 23 14 10 12 16 19 24 29 30 24 23 17 7 7 13 17 18 20 20 21 21 21 20 21 21 22 23 25 27 30 32 35 36 38 39 39 39
18 18 21 24 22 21 23 23 13 6 6 8 20 24 25 30 33 30 19 12 6 11 19 22 20 20 22 21 21 22 23 25 27 28 30 32 35 38 39 40 41 41 41 40
16 23 26 28 26 24 27 27 21 17 10 11 16 22 25 29 37 30 20 19 13 7 15 24 17 19 22 23 24 25 28 30 32 33 35 37 38 40 40 40 40 41 42 42
20 21 24 26 26 27 31 32 30 24 21 25 24 28 30 31 35 30 26 21 19 13 13 19 15 29 34 29 28 29 32 34 36 37 37 38 39 39 39 40 41 41 42 43
20 22 24 23 16 14 24 34 32 34 29 29 32 30 23 20 28 28 26 25 25 19 20 20 31 31 28 27 31 34 33 35 36 36 37 38 39 39 40 40 41 42 43 44
16 19 23 19 16 19 20 22 26 31 41 37 30 24 21 18 21 27 31 27 25 22 25 26 30 30 27 27 30 34 33 32 33 34 36 37 38 38 39 40 42 43 44 45
19 18 18 12 7 14 15 20 23 25 25 24 20 26 30 22 23 26 31 29 26 27 30 34 33 33 32 34 35 33 32 32 33 34 35 36 38 38 39 40 41 43 44 44
22 21 18 17 15 14 14 17 18 23 24 24 25 32 34 30 26 28 27 24 22 32 36 34 37 39 35 40 41 35 35 35 36 36 37 37 38 39 39 41 42 42 39 41
22 22 26 26 21 20 20 21 22 26 27 27 27 33 34 27 22 22 22 27 32 39 36 41 43 36 39 43 43 38 36 37 38 39 39 38 37 34 36 39 41 39 41 46
23 26 22 25 23 23 26 24 24 24 26 26 26 27 33 33 32 30 28 31 37 42 39 40 42 43 43 43 41 36 37 38 36 35 37 38 36 33 37 41 41 44 48 47
24 28 22 27 28 27 27 28 24 27 31 33 36 29 30 35 39 39 42 40 42 47 49 46 45 46 39 37 34 35 37 32 36 36 36 38 36 40 46 47 51 49 49 50
25 26 24 29 30 30 34 33 31 29 27 28 31 35 26 31 32 38 42 44 45 48 50 49 44 43 31 30 28 32 31 33 36 37 42 41 36 45 49 52 49 47 47 49
28 30 27 28 36 39 40 39 37 36 32 30 29 26 21 25 28 31 38 43 45 44 41 40 38 36 37 32 29 32 34 35 37 39 40 41 33 43 49 46 48 50 51 52
33 34 33 28 23 34 43 42 40 39 39 36 36 32 30 26 29 32 38 41 45 46 44 43 42 39 34 33 35 36 38 38 39 42 43 38 43 51 48 51 51 51 51 50
40 38 38 37 32 30 35 39 43 45 43 39 38 35 31 29 30 33 34 37 43 46 49 48 47 38 35 35 37 38 38 40 41 42 42 44 45 51 52 52 53 53 52 52
45 46 45 44 44 41 35 37 41 40 41 40 39 41 42 40 37 38 40 41 43 46 44 46 48 39 36 38 40 41 41 42 42 40 41 44 49 48 51 52 53 52 52 53
52 48 49 48 48 48 48 45 41 40 38 40 44 44 48 50 46 41 43 46 49 50 51 51 50 45 41 43 42 42 43 44 47 48 48 46 47 49 49 51 51 51 52 52
47 48 48 47 47 53 50 49 47 41 37 37 40 46 50 51 53 53 51 52 52 55 52 55 54 48 44 44 44 46 47 47 48 46 45 45 47 47 48 49 49 51 50 49
41 42 46 50 52 53 55 52 50 44 41 37 38 42 47 51 52 54 55 54 53 52 51 51 47 44 48 48 48 49 47 45 43 42 42 44 45 46 47 47 48 48 47 45
43 44 46 51 56 59 55 54 47 48 50 40 39 40 44 49 52 52 51 52 52 46 45 44 40 41 49 49 48 48 46 42 40 40 42 42 43 44 45 46 46 44 42 38
46 47 50 54 59 56 55 54 54 52 40 42 40 41 46 50 51 54 53 51 49 45 44 43 42 45 46 44 45 44 42 40 39 40 42 43 43 44 44 44 42 39 36 34
49 49 50 49 52 54 53 52 53 50 50 48 43 40 43 48 44 45 43 43 43 44 44 42 42 42 38 39 41 39 38 38 38 39 41 41 43 43 42 40 36 34 34 35
52 48 47 49 48 52 56 59 55 54 49 45 44 43 38 39 39 36 36 39 40 39 40 38 38 38 36 39 38 36 34 35 38 40 40 40 41 40 37 32 31 32 33 36
51 51 50 48 49 52 53 55 54 54 51 50 47 46 47 44 42 42 49 52 45 36 35 36 36 37 37 37 36 34 35 38 38 37 39 39 38 35 30 28 29 32 34 35
52 50 51 50 49 47 47 50 48 47 50 52 52 51 57 44 39 49 45 32 50 44 35 36 35 36 35 34 34 36 39 40 39 37 36 36 33 29 26 27 28 30 33 33
55 52 50 50 53 55 53 50 48 46 45 47 43 36 40 37 39 33 33 44 36 29 29 33 33 33 34 33 37 41 42 38 38 36 34 30 27 24 25 27 30 31 32 32
Wind_Direction
216 217 220 224 222 206 226 233 200 208 244 265 281 284 303 308 316 318 333 302 359 339 325 320 311 309 307 300 298 299 297 293 293 293 297 300 301 299 300 302 303 302 301 302
220 213 214 217 215 217 223 225 203 212 289 265 263 288 297 297 299 301 303 296 329 336 331 326 312 307 305 300 296 298 297 294 294 294 297 298 298 299 302 303 303 301 300 300
211 222 216 220 213 211 215 220 200 205 211 246 264 268 277 286 289 299 291 286 288 326 327 326 322 325 313 303 297 295 292 291 290 291 292 294 296 298 299 299 299 301 301 299
217 220 223 227 224 216 212 217 206 207 220 230 235 246 264 284 285 282 284 294 309 344 321 319 319 323 315 303 297 293 291 291 291 292 293 294 295 295 297 299 298 296 295 295
229 227 227 223 222 225 218 223 224 210 217 236 247 260 282 263 269 275 280 292 296 310 315 311 303 314 310 301 291 293 295 294 293 293 293 294 295 298 299 298 296 295 295 293
247 239 241 241 234 238 242 224 228 225 222 235 252 267 252 235 255 265 272 276 292 302 298 299 300 311 311 302 296 293 294 294 295 295 296 297 297 296 296 295 294 295 295 296
232 239 244 250 260 260 259 249 239 244 240 238 238 253 263 251 244 245 251 262 282 285 288 294 302 304 305 311 305 296 291 291 292 293 294 293 294 294 292 292 294 296 298 302
238 230 236 217 226 275 275 258 253 249 249 253 239 246 255 264 260 245 244 265 271 279 285 292 293 292 304 310 303 298 295 294 293 292 290 290 289 290 295 298 298 302 306 307
245 241 229 235 236 229 257 263 262 258 259 258 247 240 256 270 271 271 272 270 276 281 282 280 284 297 303 305 299 298 295 293 294 293 294 291 289 293 297 303 304 303 308 310
246 242 228 243 249 238 240 258 267 264 268 266 256 253 249 258 263 266 267 269 269 275 273 278 289 297 298 296 297 296 297 299 297 297 297 293 287 293 300 307 306 305 307 308
235 246 218 233 241 240 246 261 256 261 267 270 272 258 256 259 260 259 262 265 272 277 280 283 287 293 298 307 301 300 299 296 297 295 300 296 294 294 299 307 309 310 310 308
244 249 229 227 232 243 256 264 273 275 275 268 266 262 258 263 268 268 268 267 262 264 275 281 285 290 294 305 292 290 294 298 302 301 304 300 294 300 301 303 306 305 302 302
244 254 256 228 232 244 254 264 270 274 275 274 271 267 269 271 272 273 273 274 279 284 285 284 286 289 300 298 297 292 293 296 300 303 303 289 287 289 298 299 300 301 303 305
250 247 251 255 241 241 246 259 267 269 268 270 271 275 271 257 262 261 267 278 282 285 287 291 295 298 298 290 292 297 299 301 301 300 302 286 279 294 300 301 303 304 307 307
249 257 261 263 254 243 242 246 251 258 268 273 274 267 263 259 270 268 273 279 284 292 292 295 298 304 300 297 290 291 295 298 298 299 296 296 293 301 304 306 307 310 310 311
249 253 255 259 261 264 256 248 250 255 265 272 273 276 276 274 269 271 277 283 291 294 299 300 304 308 304 299 298 302 298 298 299 295 295 292 298 299 302 305 308 308 309 310
252 253 257 262 263 267 266 268 268 269 267 270 272 272 272 278 280 277 275 279 287 290 292 297 301 303 300 298 297 295 296 294 293 295 296 297 296 297 303 305 304 305 307 308
247 255 259 261 261 258 265 264 266 268 268 266 262 264 267 270 273 277 278 278 279 283 285 289 294 294 293 291 288 291 291 290 291 292 292 294 296 300 302 301 303 304 306 306
251 250 254 257 257 261 260 265 273 272 265 261 261 263 265 268 270 272 276 279 282 284 288 289 291 289 286 283 285 287 289 289 287 288 292 295 298 300 298 300 302 302 304 304
250 252 253 257 259 266 273 270 267 268 271 269 268 267 265 266 268 273 275 274 275 278 282 284 284 279 276 282 284 287 287 285 288 292 293 295 296 296 297 300 302 304 304 305
256 254 254 257 262 267 273 276 274 270 278 270 268 266 261 264 269 271 271 270 272 275 277 280 280 278 278 280 280 282 284 287 287 291 296 296 295 296 301 302 303 304 305 307
257 258 255 255 260 264 266 269 272 273 273 274 273 269 266 266 270 275 274 269 269 271 277 278 278 280 279 277 278 280 283 286 291 295 294 295 297 301 302 303 305 306 308 309
257 261 262 259 260 259 264 266 265 267 267 267 267 268 274 272 270 275 269 271 267 267 273 277 279 280 280 276 279 282 287 292 294 294 295 297 299 301 302 304 305 309 310 310
258 261 261 262 262 263 263 265 265 268 267 265 266 271 268 269 281 276 280 256 264 274 277 277 278 276 274 280 286 289 289 291 293 294 297 300 302 301 302 305 307 311 311 312
256 256 259 262 264 263 262 264 267 266 265 266 271 273 271 270 280 280 285 262 266 261 265 270 271 272 277 285 285 286 292 296 295 298 300 301 299 299 300 304 309 310 312 313
257 262 264 265 260 260 261 261 262 262 260 262 259 275 274 270 276 285 276 282 269 250 261 261 261 272 283 283 288 293 295 293 294 298 299 296 296 297 302 307 311 314 316 316
Height
5900 5904 5907 5909 5911 5912 5913 5913 5913 5914 5916 5912 5910 5910 5910 5908 5908 5912 5916 5920 5919 5917 5916 5914 5912 5911 5910 5909 5907 5907 5906 5904 5903 5901 5900 5898 5896 5893 5890 5888 5884 5881 5878 5875
5900 5902 5903 5903 5904 5907 5907 5908 5909 5909 5909 5909 5909 5908 5907 5905 5906 5908 5911 5915 5916 5916 5914 5912 5910 5908 5906 5905 5904 5903 5901 5899 5897 5896 5894 5892 5889 5885 5882 5879 5876 5872 5870 5867
5894 5896 5896 5897 5898 5900 5902 5903 5905 5906 5908 5909 5908 5907 5905 5904 5903 5903 5905 5907 5911 5914 5913 5911 5908 5906 5905 5902 5900 5899 5896 5893 5890 5889 5887 5885 5882 5879 5876 5872 5868 5865 5862 5858
5888 5890 5891 5893 5895 5895 5897 5899 5901 5902 5903 5906 5905 5905 5902 5900 5898 5899 5898 5899 5902 5906 5908 5907 5905 5903 5901 5898 5895 5892 5889 5886 5884 5881 5879 5877 5874 5872 5869 5865 5862 5857 5854 5849
5885 5884 5886 5886 5890 5891 5894 5895 5896 5898 5898 5899 5899 5899 5904 5903 5898 5895 5891 5892 5895 5900 5902 5903 5902 5899 5894 5891 5888 5885 5883 5879 5876 5874 5871 5868 5865 5864 5861 5856 5852 5848 5845 5842
5881 5881 5883 5884 5885 5885 5887 5889 5889 5891 5894 5894 5897 5897 5894 5895 5894 5893 5887 5889 5891 5893 5896 5898 5898 5894 5889 5885 5881 5879 5876 5873 5870 5866 5863 5860 5858 5856 5853 5848 5843 5839 5835 5832
5875 5877 5878 5881 5881 5881 5883 5885 5884 5886 5887 5891 5893 5889 5885 5888 5887 5886 5885 5887 5888 5888 5890 5890 5889 5886 5882 5878 5874 5872 5869 5866 5863 5860 5857 5853 5850 5846 5843 5839 5834 5830 5826 5823
5870 5873 5874 5875 5877 5877 5878 5879 5880 5879 5881 5883 5884 5881 5878 5879 5881 5882 5882 5882 5882 5882 5882 5880 5880 5879 5875 5870 5866 5865 5861 5858 5855 5851 5848 5845 5841 5837 5833 5829 5825 5822 5819 5814
5865 5868 5869 5869 5871 5873 5873 5873 5875 5874 5874 5875 5876 5876 5875 5874 5873 5874 5874 5876 5876 5876 5874 5872 5871 5871 5868 5863 5858 5857 5854 5850 5846 5843 5839 5836 5831 5828 5824 5820 5817 5813 5808 5803
5862 5862 5865 5863 5865 5867 5866 5869 5870 5869 5869 5869 5870 5871 5869 5870 5869 5868 5870 5870 5868 5867 5865 5863 5863 5864 5862 5857 5851 5849 5845 5841 5837 5834 5831 5827 5823 5818 5814 5811 5808 5804 5799 5793
5855 5856 5862 5859 5858 5860 5862 5861 5863 5864 5862 5860 5860 5865 5865 5864 5864 5863 5861 5862 5861 5860 5858 5857 5857 5856 5855 5850 5845 5840 5835 5832 5829 5825 5822 5817 5814 5810 5806 5801 5797 5792 5787 5781
5849 5850 5853 5854 5854 5854 5854 5854 5855 5856 5858 5854 5853 5854 5858 5857 5857 5855 5854 5854 5854 5853 5852 5849 5846 5845 5846 5846 5842 5835 5830 5826 5821 5817 5813 5809 5805 5802 5797 5793 5788 5784 5778 5773
5841 5841 5845 5849 5849 5847 5847 5848 5849 5848 5847 5846 5847 5849 5851 5850 5849 5847 5844 5841 5840 5841 5839 5838 5837 5836 5835 5834 5831 5825 5822 5818 5812 5808 5804 5800 5797 5795 5789 5786 5780 5773 5768 5762
5832 5833 5835 5838 5844 5845 5842 5841 5840 5839 5838 5839 5838 5839 5842 5842 5839 5838 5836 5834 5830 5828 5826 5826 5827 5829 5827 5822 5816 5812 5809 5805 5802 5798 5794 5790 5787 5783 5779 5773 5767 5762 5757 5751
5827 5827 5827 5828 5832 5834 5834 5834 5834 5831 5832 5831 5832 5831 5832 5832 5832 5830 5828 5826 5823 5819 5817 5818 5817 5818 5815 5812 5808 5804 5801 5797 5793 5789 5785 5780 5775 5770 5763 5758 5753 5747 5741 5736
5817 5817 5818 5817 5819 5820 5824 5824 5823 5826 5825 5823 5823 5821 5823 5822 5821 5822 5820 5816 5815 5813 5812 5808 5806 5806 5803 5801 5797 5795 5791 5787 5783 5780 5777 5772 5766 5759 5753 5748 5743 5737 5731 5725
5806 5809 5811 5810 5813 5811 5806 5810 5815 5817 5817 5817 5813 5813 5811 5809 5810 5811 5810 5808 5806 5805 5803 5801 5799 5797 5794 5792 5789 5786 5782 5778 5775 5770 5766 5761 5756 5750 5745 5739 5733 5728 5722 5715
5799 5799 5800 5800 5801 5795 5799 5800 5801 5806 5808 5807 5803 5801 5799 5798 5798 5797 5799 5799 5799 5797 5795 5793 5791 5789 5784 5782 5780 5777 5773 5770 5765 5761 5757 5752 5746 5741 5736 5729 5724 5718 5711 5704
5788 5788 5786 5784 5784 5786 5784 5788 5790 5793 5796 5792 5791 5792 5790 5788 5788 5787 5788 5788 5787 5786 5785 5783 5781 5778 5774 5771 5770 5766 5763 5759 5755 5751 5747 5741 5735 5731 5725 5720 5714 5707 5701 5694
5775 5775 5775 5773 5769 5766 5769 5774 5780 5778 5773 5783 5782 5780 5777 5776 5775 5776 5777 5776 5775 5775 5774 5773 5771 5768 5762 5761 5758 5754 5752 5748 5743 5740 5735 5731 5727 5721 5716 5710 5703 5696 5691 5685
5760 5761 5761 5761 5757 5758 5758 5759 5762 5762 5772 5766 5767 5767 5767 5765 5766 5765 5764 5764 5763 5764 5763 5761 5758 5754 5751 5751 5747 5745 5743 5739 5735 5730 5725 5721 5716 5710 5704 5698 5692 5686 5681 5676
5743 5745 5746 5748 5747 5746 5749 5750 5747 5748 5746 5746 5749 5751 5752 5752 5752 5751 5752 5752 5752 5751 5749 5747 5745 5744 5742 5739 5737 5735 5731 5728 5723 5718 5715 5710 5705 5699 5693 5687 5682 5677 5672 5667
5726 5730 5731 5732 5736 5734 5732 5731 5732 5733 5734 5738 5738 5741 5740 5740 5741 5739 5740 5741 5739 5738 5737 5735 5734 5732 5731 5727 5726 5723 5721 5717 5713 5709 5704 5699 5693 5689 5683 5678 5673 5668 5664 5659
5714 5715 5714 5716 5718 5718 5720 5719 5721 5722 5724 5725 5728 5729 5728 5729 5729 5729 5727 5725 5726 5728 5726 5725 5724 5722 5719 5718 5718 5714 5710 5707 5702 5697 5693 5687 5682 5677 5673 5669 5665 5661 5656 5651
5699 5699 5698 5701 5702 5703 5706 5706 5709 5712 5713 5713 5716 5716 5714 5718 5717 5715 5715 5713 5713 5715 5715 5715 5713 5712 5712 5709 5706 5702 5699 5696 5692 5687 5682 5677 5673 5669 5666 5662 5659 5654 5650 5644
5686 5685 5686 5689 5687 5688 5693 5695 5695 5697 5700 5703 5704 5704 5704 5705 5706 5706 5706 5707 5705 5704 5703 5703 5703 5703 5702 5699 5696 5693 5690 5686 5684 5678 5672 5669 5665 5662 5659 5655 5652 5647 5642 5637